| time (UTC) | temp F | wind direction | speed MPH | gust MPH | rain 1hr in | rain 24hr in | rain mn in | humidity % | barometer mb |
| 20260903141530 | 82 | 132 | 0.0 | 0.0 | 0.00 | 0.00 | 0.00 | 90 | 1016.4 |
| 20260903141024 | 82 | 133 | 0.0 | 0.0 | 0.00 | 0.00 | 0.00 | 90 | 1016.4 |
| 20260903140524 | 82 | 134 | 0.0 | 0.0 | 0.00 | 0.00 | 0.00 | 90 | 1016.4 |
| 20260903140035 | 82 | 166 | 0.0 | 0.0 | 0.00 | 0.00 | 0.00 | 90 | 1016.5 |
| 20260903135522 | 82 | 170 | 0.0 | 1.0 | 0.00 | 0.00 | 0.00 | 90 | 1016.4 |
| 20260903135024 | 82 | 169 | 0.0 | 1.0 | 0.00 | 0.00 | 0.00 | 90 | 1016.4 |
| 20260903134521 | 82 | 170 | 0.0 | 2.0 | 0.00 | 0.00 | 0.00 | 90 | 1016.4 |
| 20260903134024 | 82 | 173 | 0.0 | 2.0 | 0.00 | 0.00 | 0.00 | 90 | 1016.4 |
| 20260903133521 | 82 | 173 | 0.0 | 1.0 | 0.00 | 0.00 | 0.00 | 90 | 1016.5 |
| 20260903133022 | 81 | 173 | 0.0 | 0.0 | 0.00 | 0.00 | 0.00 | 90 | 1016.5 |
| 20260903132522 | 81 | 173 | 0.0 | 0.0 | 0.00 | 0.00 | 0.00 | 90 | 1016.5 |
| 20260903132019 | 81 | 173 | 0.0 | 0.0 | 0.00 | 0.00 | 0.00 | 90 | 1016.4 |
| 20260903131525 | 82 | 173 | 0.0 | 0.0 | 0.00 | 0.00 | 0.00 | 90 | 1016.2 |
| 20260903131019 | 82 | 173 | 0.0 | 0.0 | 0.00 | 0.00 | 0.00 | 90 | 1016.0 |
| 20260903130518 | 82 | 173 | 0.0 | 0.0 | 0.00 | 0.00 | 0.00 | 90 | 1016.1 |
| 20260903130019 | 82 | 173 | 0.0 | 0.0 | 0.00 | 0.00 | 0.00 | 90 | 1016.1 |
| 20260903125522 | 82 | 173 | 0.0 | 0.0 | 0.00 | 0.00 | 0.00 | 90 | 1016.2 |
| 20260903125019 | 82 | 173 | 0.0 | 0.0 | 0.00 | 0.00 | 0.00 | 89 | 1016.1 |
| 20260903124517 | 82 | 173 | 0.0 | 0.0 | 0.00 | 0.00 | 0.00 | 89 | 1015.9 |
| 20260903124016 | 82 | 173 | 0.0 | 0.0 | 0.00 | 0.00 | 0.00 | 89 | 1015.8 |
| 20260903123519 | 82 | 173 | 0.0 | 0.0 | 0.00 | 0.00 | 0.00 | 89 | 1015.7 |
| 20260903123025 | 82 | 173 | 0.0 | 0.0 | 0.00 | 0.00 | 0.00 | 89 | 1015.7 |
| 20260903122515 | 82 | 173 | 0.0 | 0.0 | 0.00 | 0.00 | 0.00 | 88 | 1015.6 |
| 20260903122015 | 82 | 173 | 0.0 | 3.0 | 0.00 | 0.00 | 0.00 | 88 | 1015.6 |
| 20260903121518 | 82 | 173 | 0.0 | 3.0 | 0.00 | 0.00 | 0.00 | 88 | 1015.4 |
| 20260903121014 | 82 | 172 | 0.0 | 5.0 | 0.00 | 0.00 | 0.00 | 88 | 1015.4 |
| 20260903120518 | 82 | 182 | 1.0 | 5.0 | 0.00 | 0.00 | 0.00 | 88 | 1015.4 |
| 20260903120015 | 82 | 160 | 1.0 | 5.0 | 0.00 | 0.00 | 0.00 | 88 | 1015.5 |
| 20260903115514 | 82 | 180 | 0.0 | 2.0 | 0.00 | 0.00 | 0.00 | 88 | 1015.4 |
| 20260903115014 | 82 | 180 | 0.0 | 2.0 | 0.00 | 0.00 | 0.00 | 88 | 1015.3 |
| 20260903114514 | 82 | 177 | 0.0 | 1.0 | 0.00 | 0.00 | 0.00 | 88 | 1015.3 |
| 20260903114014 | 82 | 177 | 0.0 | 5.0 | 0.00 | 0.00 | 0.00 | 88 | 1015.3 |
| 20260903113513 | 82 | 177 | 2.0 | 6.0 | 0.00 | 0.00 | 0.00 | 88 | 1015.3 |
| 20260903113013 | 82 | 182 | 0.0 | 3.0 | 0.00 | 0.00 | 0.00 | 88 | 1015.3 |
| 20260903112512 | 82 | 150 | 0.0 | 3.0 | 0.00 | 0.00 | 0.00 | 88 | 1015.3 |
| 20260903112012 | 83 | 150 | 0.0 | 3.0 | 0.00 | 0.00 | 0.00 | 87 | 1015.3 |
| 20260903111511 | 83 | 175 | 0.0 | 3.0 | 0.00 | 0.00 | 0.00 | 87 | 1015.3 |
| 20260903111010 | 83 | 160 | 0.0 | 2.0 | 0.00 | 0.00 | 0.00 | 86 | 1015.4 |
| 20260903110509 | 83 | 175 | 0.0 | 7.0 | 0.00 | 0.00 | 0.00 | 86 | 1015.3 |
| 20260903110009 | 83 | 181 | 1.0 | 6.0 | 0.00 | 0.00 | 0.00 | 85 | 1015.3 |
| 20260903105513 | 83 | 159 | 1.0 | 9.0 | 0.00 | 0.00 | 0.00 | 85 | 1015.4 |
| 20260903105009 | 83 | 183 | 2.0 | 9.0 | 0.00 | 0.00 | 0.00 | 85 | 1015.2 |
| 20260903104509 | 83 | 172 | 0.0 | 4.0 | 0.00 | 0.00 | 0.00 | 85 | 1015.3 |
| 20260903104008 | 83 | 181 | 0.0 | 3.0 | 0.00 | 0.00 | 0.00 | 85 | 1015.2 |
| 20260903103508 | 84 | 181 | 0.0 | 5.0 | 0.00 | 0.00 | 0.00 | 85 | 1015.2 |
| 20260903103008 | 84 | 164 | 0.0 | 5.0 | 0.00 | 0.00 | 0.00 | 85 | 1015.2 |
| 20260903102508 | 84 | 138 | 1.0 | 5.0 | 0.00 | 0.00 | 0.00 | 85 | 1015.1 |
| 20260903102007 | 84 | 148 | 0.0 | 2.0 | 0.00 | 0.00 | 0.00 | 85 | 1015.0 |
| 20260903101507 | 84 | 142 | 0.0 | 5.0 | 0.00 | 0.00 | 0.00 | 85 | 1015.1 |
| 20260903101010 | 84 | 160 | 0.0 | 5.0 | 0.00 | 0.00 | 0.00 | 85 | 1015.0 |
| 20260903100507 | 84 | 172 | 0.0 | 2.0 | 0.00 | 0.00 | 0.00 | 85 | 1015.0 |
| 20260903100006 | 84 | 173 | 0.0 | 4.0 | 0.00 | 0.00 | 0.00 | 85 | 1015.0 |
| 20260903095506 | 84 | 179 | 0.0 | 6.0 | 0.00 | 0.00 | 0.00 | 85 | 1015.0 |
| 20260903095006 | 84 | 186 | 1.0 | 5.0 | 0.00 | 0.00 | 0.00 | 85 | 1015.0 |
| 20260903094506 | 84 | 173 | 0.0 | 3.0 | 0.00 | 0.00 | 0.00 | 85 | 1015.0 |
| 20260903094006 | 84 | 179 | 0.0 | 3.0 | 0.00 | 0.00 | 0.00 | 85 | 1015.0 |
| 20260903093508 | 84 | 168 | 0.0 | 5.0 | 0.00 | 0.00 | 0.00 | 85 | 1015.1 |
| 20260903093006 | 84 | 182 | 2.0 | 6.0 | 0.00 | 0.00 | 0.00 | 84 | 1015.0 |
| 20260903092505 | 84 | 173 | 2.0 | 6.0 | 0.00 | 0.00 | 0.00 | 84 | 1015.1 |
| 20260903092005 | 84 | 182 | 2.0 | 9.0 | 0.00 | 0.00 | 0.00 | 84 | 1014.9 |
| 20260903091506 | 84 | 171 | 3.0 | 9.0 | 0.00 | 0.00 | 0.00 | 84 | 1015.0 |
| 20260903091004 | 84 | 165 | 0.0 | 7.0 | 0.00 | 0.00 | 0.00 | 84 | 1015.0 |
| 20260903090504 | 84 | 182 | 0.0 | 4.0 | 0.00 | 0.00 | 0.00 | 84 | 1015.0 |
| 20260903090012 | 84 | 172 | 1.0 | 5.0 | 0.00 | 0.00 | 0.00 | 84 | 1015.0 |
| 20260903085503 | 84 | 169 | 1.0 | 4.0 | 0.00 | 0.00 | 0.00 | 84 | 1014.9 |
| 20260903085004 | 84 | 157 | 0.0 | 6.0 | 0.00 | 0.00 | 0.00 | 84 | 1015.0 |
| 20260903084510 | 84 | 136 | 1.0 | 5.0 | 0.00 | 0.00 | 0.00 | 84 | 1014.9 |
| 20260903084005 | 84 | 158 | 1.0 | 6.0 | 0.00 | 0.00 | 0.00 | 84 | 1014.8 |
| 20260903083504 | 84 | 155 | 0.0 | 6.0 | 0.00 | 0.00 | 0.00 | 84 | 1014.8 |
| 20260903083003 | 84 | 148 | 0.0 | 8.0 | 0.00 | 0.00 | 0.00 | 84 | 1014.8 |
| 20260903082503 | 84 | 123 | 2.0 | 8.0 | 0.00 | 0.00 | 0.00 | 84 | 1014.8 |
| 20260903082003 | 84 | 162 | 1.0 | 7.0 | 0.00 | 0.00 | 0.00 | 84 | 1014.8 |
| 20260903081503 | 84 | 157 | 0.0 | 7.0 | 0.00 | 0.00 | 0.00 | 84 | 1014.7 |
| 20260903081004 | 84 | 190 | 2.0 | 6.0 | 0.00 | 0.00 | 0.00 | 84 | 1014.8 |
| 20260903080502 | 84 | 181 | 2.0 | 7.0 | 0.00 | 0.00 | 0.00 | 84 | 1014.8 |
| 20260903080002 | 84 | 170 | 1.0 | 11.0 | 0.00 | 0.00 | 0.00 | 84 | 1014.7 |
| 20260903075502 | 84 | 200 | 3.0 | 11.0 | 0.00 | 0.00 | 0.00 | 84 | 1014.7 |
| 20260903075001 | 84 | 175 | 4.0 | 8.0 | 0.00 | 0.00 | 0.00 | 84 | 1014.7 |
| 20260903074501 | 84 | 229 | 2.0 | 7.0 | 0.00 | 0.00 | 0.00 | 84 | 1014.6 |
| 20260903074001 | 84 | 183 | 2.0 | 8.0 | 0.00 | 0.00 | 0.00 | 84 | 1014.7 |
| 20260903073503 | 84 | 182 | 1.0 | 10.0 | 0.00 | 0.00 | 0.00 | 84 | 1014.8 |
| 20260903073001 | 84 | 178 | 3.0 | 10.0 | 0.00 | 0.00 | 0.00 | 84 | 1014.7 |
| 20260903072600 | 84 | 182 | 2.0 | 9.0 | 0.00 | 0.00 | 0.00 | 85 | 1014.8 |
| 20260903072059 | 83 | 172 | 3.0 | 7.0 | 0.00 | 0.00 | 0.00 | 85 | 1014.9 |
| 20260903071609 | 84 | 180 | 0.0 | 8.0 | 0.00 | 0.00 | 0.00 | 85 | 1014.9 |
| 20260903071059 | 84 | 167 | 1.0 | 8.0 | 0.00 | 0.00 | 0.00 | 85 | 1015.0 |
| 20260903070558 | 84 | 173 | 2.0 | 6.0 | 0.00 | 0.00 | 0.00 | 85 | 1015.0 |
| 20260903070059 | 84 | 126 | 2.0 | 6.0 | 0.00 | 0.00 | 0.00 | 85 | 1015.0 |
| 20260903065558 | 84 | 169 | 2.0 | 6.0 | 0.00 | 0.00 | 0.00 | 85 | 1015.2 |
| 20260903065057 | 84 | 167 | 1.0 | 6.0 | 0.00 | 0.00 | 0.00 | 84 | 1015.2 |
| 20260903064559 | 84 | 169 | 1.0 | 8.0 | 0.00 | 0.00 | 0.00 | 85 | 1015.3 |
| 20260903064055 | 84 | 182 | 0.0 | 5.0 | 0.00 | 0.00 | 0.00 | 84 | 1015.3 |
| 20260903063555 | 84 | 204 | 0.0 | 5.0 | 0.00 | 0.00 | 0.00 | 84 | 1015.4 |
| 20260903063106 | 84 | 175 | 1.0 | 5.0 | 0.00 | 0.00 | 0.00 | 84 | 1015.5 |
| 20260903062553 | 84 | 190 | 1.0 | 5.0 | 0.00 | 0.00 | 0.00 | 84 | 1015.5 |
| 20260903062055 | 84 | 163 | 1.0 | 4.0 | 0.00 | 0.00 | 0.00 | 84 | 1015.6 |
| 20260903061557 | 84 | 141 | 0.0 | 5.0 | 0.00 | 0.00 | 0.00 | 84 | 1015.7 |
| 20260903061051 | 84 | 178 | 1.0 | 5.0 | 0.00 | 0.00 | 0.00 | 84 | 1015.8 |
| 20260903060551 | 84 | 178 | 0.0 | 3.0 | 0.00 | 0.00 | 0.00 | 84 | 1015.9 |
| 20260903060051 | 84 | 153 | 0.0 | 5.0 | 0.00 | 0.00 | 0.00 | 84 | 1015.9 |
| 20260903055551 | 84 | 194 | 1.0 | 5.0 | 0.00 | 0.00 | 0.00 | 84 | 1016.0 |
| 20260903055050 | 84 | 175 | 0.0 | 5.0 | 0.00 | 0.00 | 0.00 | 84 | 1015.9 |
| 20260903054549 | 84 | 173 | 2.0 | 6.0 | 0.00 | 0.00 | 0.00 | 84 | 1016.1 |
| 20260903054051 | 84 | 200 | 0.0 | 6.0 | 0.00 | 0.00 | 0.00 | 84 | 1016.1 |
| 20260903053550 | 85 | 182 | 0.0 | 5.0 | 0.00 | 0.00 | 0.00 | 84 | 1016.2 |
| 20260903053108 | 85 | 180 | 0.0 | 5.0 | 0.00 | 0.00 | 0.00 | 84 | 1016.2 |
| 20260903052546 | 85 | 160 | 0.0 | 6.0 | 0.00 | 0.00 | 0.00 | 84 | 1016.2 |
| 20260903052047 | 85 | 175 | 0.0 | 4.0 | 0.00 | 0.00 | 0.00 | 84 | 1016.2 |
| 20260903051547 | 85 | 175 | 0.0 | 5.0 | 0.00 | 0.00 | 0.00 | 84 | 1016.3 |
| 20260903051046 | 85 | 188 | 0.0 | 5.0 | 0.00 | 0.00 | 0.00 | 84 | 1016.4 |
| 20260903050549 | 85 | 157 | 1.0 | 4.0 | 0.00 | 0.00 | 0.00 | 84 | 1016.4 |
| 20260903050057 | 85 | 169 | 0.0 | 6.0 | 0.00 | 0.00 | 0.00 | 84 | 1016.3 |
| 20260903045545 | 85 | 184 | 0.0 | 4.0 | 0.00 | 0.00 | 0.00 | 84 | 1016.4 |
| 20260903045044 | 85 | 154 | 0.0 | 5.0 | 0.00 | 0.00 | 0.00 | 84 | 1016.4 |
| 20260903044556 | 85 | 163 | 0.0 | 6.0 | 0.00 | 0.00 | 0.00 | 84 | 1016.3 |
| 20260903044044 | 85 | 188 | 2.0 | 9.0 | 0.00 | 0.00 | 0.00 | 84 | 1016.2 |
| 20260903043545 | 85 | 161 | 0.0 | 8.0 | 0.00 | 0.00 | 0.00 | 84 | 1016.4 |
| 20260903043056 | 85 | 166 | 2.0 | 8.0 | 0.00 | 0.00 | 0.00 | 84 | 1016.3 |
| 20260903042544 | 85 | 159 | 0.0 | 8.0 | 0.00 | 0.00 | 0.00 | 84 | 1016.2 |
| 20260903042046 | 85 | 170 | 1.0 | 11.0 | 0.00 | 0.00 | 0.00 | 84 | 1016.2 |
| 20260903041550 | 85 | 148 | 2.0 | 11.0 | 0.00 | 0.00 | 0.00 | 84 | 1016.1 |
| 20260903041045 | 85 | 167 | 3.0 | 9.0 | 0.00 | 0.00 | 0.00 | 84 | 1016.1 |
| 20260903040544 | 85 | 137 | 3.0 | 9.0 | 0.00 | 0.00 | 0.00 | 84 | 1016.1 |
| 20260903040045 | 85 | 144 | 1.0 | 8.0 | 0.00 | 0.00 | 0.00 | 83 | 1016.2 |
| 20260903035542 | 85 | 160 | 1.0 | 8.0 | 0.00 | 0.00 | 0.00 | 83 | 1016.2 |
| 20260903035042 | 85 | 150 | 0.0 | 8.0 | 0.00 | 0.00 | 0.00 | 83 | 1016.1 |
| 20260903034543 | 85 | 171 | 4.0 | 9.0 | 0.00 | 0.00 | 0.00 | 83 | 1016.1 |
| 20260903034043 | 85 | 151 | 3.0 | 10.0 | 0.00 | 0.00 | 0.00 | 83 | 1016.0 |
| 20260903033542 | 85 | 171 | 3.0 | 10.0 | 0.00 | 0.00 | 0.00 | 83 | 1016.0 |
| 20260903033042 | 85 | 217 | 4.0 | 11.0 | 0.00 | 0.00 | 0.00 | 83 | 1016.0 |
| 20260903032541 | 85 | 165 | 3.0 | 10.0 | 0.00 | 0.00 | 0.00 | 83 | 1015.9 |
| 20260903032040 | 85 | 157 | 2.0 | 13.0 | 0.00 | 0.00 | 0.00 | 83 | 1015.8 |
| 20260903031540 | 85 | 209 | 6.0 | 13.0 | 0.00 | 0.00 | 0.00 | 83 | 1015.7 |
| 20260903031040 | 85 | 144 | 3.0 | 8.0 | 0.00 | 0.00 | 0.00 | 83 | 1015.7 |
| 20260903030540 | 86 | 167 | 2.0 | 11.0 | 0.00 | 0.00 | 0.00 | 83 | 1015.8 |
| 20260903030041 | 86 | 185 | 2.0 | 10.0 | 0.00 | 0.00 | 0.00 | 82 | 1015.7 |
| 20260903025540 | 86 | 183 | 2.0 | 10.0 | 0.00 | 0.00 | 0.00 | 82 | 1015.6 |
| 20260903025045 | 86 | 171 | 3.0 | 11.0 | 0.00 | 0.00 | 0.00 | 82 | 1015.3 |
| 20260903024540 | 86 | 142 | 3.0 | 11.0 | 0.00 | 0.00 | 0.00 | 81 | 1015.2 |
| 20260903024041 | 86 | 135 | 3.0 | 9.0 | 0.00 | 0.00 | 0.00 | 81 | 1015.2 |
| 20260903023539 | 86 | 177 | 4.0 | 9.0 | 0.00 | 0.00 | 0.00 | 80 | 1015.2 |
| 20260903023040 | 86 | 136 | 2.0 | 9.0 | 0.00 | 0.00 | 0.00 | 79 | 1015.1 |
| 20260903022538 | 86 | 146 | 2.0 | 9.0 | 0.00 | 0.00 | 0.00 | 78 | 1015.2 |
| 20260903022038 | 87 | 138 | 2.0 | 7.0 | 0.00 | 0.00 | 0.00 | 77 | 1015.2 |
| 20260903021548 | 87 | 186 | 2.0 | 7.0 | 0.00 | 0.00 | 0.00 | 76 | 1015.0 |
| 20260903021038 | 87 | 163 | 3.0 | 7.0 | 0.00 | 0.00 | 0.00 | 75 | 1014.9 |
| 20260903020538 | 87 | 185 | 3.0 | 9.0 | 0.00 | 0.00 | 0.00 | 74 | 1014.8 |
| 20260903020038 | 87 | 154 | 4.0 | 9.0 | 0.00 | 0.00 | 0.00 | 73 | 1014.8 |
| 20260903015538 | 87 | 178 | 3.0 | 6.0 | 0.00 | 0.00 | 0.00 | 72 | 1014.9 |
| 20260903015037 | 87 | 159 | 0.0 | 12.0 | 0.00 | 0.00 | 0.00 | 72 | 1015.0 |
| 20260903014537 | 87 | 125 | 2.0 | 17.0 | 0.00 | 0.00 | 0.00 | 71 | 1014.9 |
| 20260903014039 | 88 | 188 | 5.0 | 17.0 | 0.00 | 0.00 | 0.00 | 70 | 1014.7 |
| 20260903013538 | 88 | 213 | 4.0 | 14.0 | 0.00 | 0.00 | 0.00 | 69 | 1014.7 |
| 20260903013037 | 88 | 156 | 2.0 | 11.0 | 0.00 | 0.00 | 0.00 | 68 | 1014.6 |
| 20260903012537 | 88 | 153 | 2.0 | 11.0 | 0.00 | 0.00 | 0.00 | 66 | 1014.5 |
| 20260903012037 | 88 | 171 | 5.0 | 11.0 | 0.00 | 0.00 | 0.00 | 66 | 1014.3 |
| 20260903011537 | 88 | 198 | 2.0 | 10.0 | 0.00 | 0.00 | 0.00 | 64 | 1014.2 |
| 20260903011037 | 88 | 167 | 4.0 | 13.0 | 0.00 | 0.00 | 0.00 | 64 | 1014.1 |
| 20260903010536 | 89 | 163 | 3.0 | 12.0 | 0.00 | 0.00 | 0.00 | 63 | 1013.9 |
| 20260903010036 | 89 | 159 | 5.0 | 16.0 | 0.00 | 0.00 | 0.00 | 62 | 1014.1 |
| 20260903005536 | 89 | 197 | 5.0 | 16.0 | 0.00 | 0.00 | 0.00 | 63 | 1013.7 |
| 20260903005035 | 89 | 168 | 5.0 | 17.0 | 0.00 | 0.00 | 0.00 | 64 | 1013.5 |
| 20260903004536 | 89 | 186 | 6.0 | 17.0 | 0.00 | 0.00 | 0.00 | 64 | 1013.4 |
| 20260903004035 | 89 | 105 | 8.0 | 17.0 | 0.00 | 0.00 | 0.00 | 64 | 1013.4 |
| 20260903003535 | 90 | 171 | 5.0 | 12.0 | 0.00 | 0.00 | 0.00 | 63 | 1013.4 |
| 20260903003135 | 90 | 187 | 6.0 | 12.0 | 0.00 | 0.00 | 0.00 | 63 | 1013.4 |
| 20260903002535 | 90 | 171 | 4.0 | 12.0 | 0.00 | 0.00 | 0.00 | 63 | 1013.3 |
| 20260903002035 | 90 | 184 | 4.0 | 15.0 | 0.00 | 0.00 | 0.00 | 62 | 1013.2 |
| 20260903001534 | 91 | 167 | 5.0 | 14.0 | 0.00 | 0.00 | 0.00 | 62 | 1013.2 |
| 20260903001041 | 91 | 180 | 6.0 | 14.0 | 0.00 | 0.00 | 0.00 | 61 | 1013.0 |
| 20260903000534 | 91 | 205 | 4.0 | 10.0 | 0.00 | 0.00 | 0.00 | 61 | 1012.7 |
| 20260903000036 | 91 | 136 | 4.0 | 16.0 | 0.00 | 0.00 | 0.00 | 62 | 1012.8 |
| 20260902235534 | 91 | 172 | 4.0 | 16.0 | 0.00 | 0.00 | 0.00 | 62 | 1012.9 |
| 20260902235034 | 92 | 153 | 6.0 | 12.0 | 0.00 | 0.00 | 0.00 | 63 | 1012.9 |
| 20260902234533 | 92 | 186 | 4.0 | 12.0 | 0.00 | 0.00 | 0.00 | 63 | 1012.9 |
| 20260902234037 | 92 | 199 | 6.0 | 12.0 | 0.00 | 0.00 | 0.00 | 63 | 1012.9 |
| 20260902233533 | 92 | 157 | 2.0 | 12.0 | 0.00 | 0.00 | 0.00 | 63 | 1012.9 |
| 20260902233033 | 92 | 184 | 2.0 | 12.0 | 0.00 | 0.00 | 0.00 | 63 | 1012.8 |
| 20260902232533 | 92 | 140 | 6.0 | 12.0 | 0.00 | 0.00 | 0.00 | 63 | 1012.9 |
| 20260902232032 | 92 | 199 | 3.0 | 15.0 | 0.00 | 0.00 | 0.00 | 63 | 1012.9 |
| 20260902231534 | 93 | 169 | 4.0 | 15.0 | 0.00 | 0.00 | 0.00 | 63 | 1012.8 |
| 20260902231033 | 93 | 215 | 3.0 | 15.0 | 0.00 | 0.00 | 0.00 | 62 | 1012.8 |
| 20260902230532 | 93 | 214 | 6.0 | 15.0 | 0.00 | 0.00 | 0.00 | 62 | 1012.8 |
| 20260902230032 | 93 | 141 | 4.0 | 14.0 | 0.00 | 0.00 | 0.00 | 62 | 1012.7 |
| 20260902225532 | 94 | 203 | 5.0 | 14.0 | 0.00 | 0.00 | 0.00 | 61 | 1012.7 |
| 20260902225035 | 94 | 140 | 6.0 | 13.0 | 0.00 | 0.00 | 0.00 | 61 | 1012.6 |
| 20260902224534 | 94 | 150 | 3.0 | 12.0 | 0.00 | 0.00 | 0.00 | 60 | 1012.6 |
| 20260902224030 | 94 | 188 | 3.0 | 12.0 | 0.00 | 0.00 | 0.00 | 60 | 1012.7 |
| 20260902223530 | 94 | 147 | 5.0 | 12.0 | 0.00 | 0.00 | 0.00 | 59 | 1012.8 |
| 20260902223030 | 94 | 192 | 6.0 | 9.0 | 0.00 | 0.00 | 0.00 | 59 | 1012.8 |
| 20260902222532 | 94 | 115 | 6.0 | 11.0 | 0.00 | 0.00 | 0.00 | 59 | 1012.6 |
| 20260902222030 | 94 | 180 | 3.0 | 11.0 | 0.00 | 0.00 | 0.00 | 60 | 1012.8 |
| 20260902221535 | 94 | 154 | 5.0 | 11.0 | 0.00 | 0.00 | 0.00 | 59 | 1012.9 |
| 20260902221030 | 94 | 215 | 5.0 | 11.0 | 0.00 | 0.00 | 0.00 | 60 | 1013.0 |
| 20260902220526 | 94 | 163 | 2.0 | 11.0 | 0.00 | 0.00 | 0.00 | 60 | 1012.9 |
| 20260902220040 | 94 | 173 | 6.0 | 12.0 | 0.00 | 0.00 | 0.00 | 60 | 1012.8 |
| 20260902215526 | 94 | 159 | 4.0 | 12.0 | 0.00 | 0.00 | 0.00 | 60 | 1012.8 |
| 20260902215024 | 94 | 160 | 3.0 | 9.0 | 0.00 | 0.00 | 0.00 | 60 | 1012.9 |
| 20260902214524 | 94 | 183 | 3.0 | 10.0 | 0.00 | 0.00 | 0.00 | 60 | 1013.0 |
| 20260902214024 | 95 | 163 | 5.0 | 10.0 | 0.00 | 0.00 | 0.00 | 60 | 1013.0 |
| 20260902213522 | 94 | 163 | 3.0 | 8.0 | 0.00 | 0.00 | 0.00 | 60 | 1013.0 |
| 20260902213022 | 94 | 206 | 3.0 | 9.0 | 0.00 | 0.00 | 0.00 | 60 | 1013.0 |
| 20260902212521 | 94 | 199 | 3.0 | 7.0 | 0.00 | 0.00 | 0.00 | 60 | 1013.0 |
| 20260902212021 | 95 | 204 | 4.0 | 8.0 | 0.00 | 0.00 | 0.00 | 59 | 1013.1 |
| 20260902211520 | 95 | 205 | 4.0 | 7.0 | 0.00 | 0.00 | 0.00 | 59 | 1013.1 |
| 20260902211019 | 95 | 169 | 2.0 | 9.0 | 0.00 | 0.00 | 0.00 | 59 | 1013.1 |
| 20260902210519 | 95 | 155 | 5.0 | 12.0 | 0.00 | 0.00 | 0.00 | 59 | 1013.2 |
| 20260902210122 | 95 | 130 | 5.0 | 12.0 | 0.00 | 0.00 | 0.00 | 59 | 1013.1 |
| 20260902205518 | 95 | 180 | 1.0 | 10.0 | 0.00 | 0.00 | 0.00 | 59 | 1013.3 |
| 20260902205016 | 95 | 178 | 3.0 | 12.0 | 0.00 | 0.00 | 0.00 | 58 | 1013.4 |
| 20260902204517 | 95 | 189 | 4.0 | 12.0 | 0.00 | 0.00 | 0.00 | 59 | 1013.3 |
| 20260902204019 | 95 | 173 | 5.0 | 10.0 | 0.00 | 0.00 | 0.00 | 58 | 1013.5 |
| 20260902203514 | 95 | 184 | 3.0 | 13.0 | 0.00 | 0.00 | 0.00 | 58 | 1013.6 |
| 20260902203013 | 95 | 171 | 6.0 | 13.0 | 0.00 | 0.00 | 0.00 | 57 | 1013.6 |
| 20260902202512 | 95 | 167 | 2.0 | 12.0 | 0.00 | 0.00 | 0.00 | 58 | 1013.6 |
| 20260902202011 | 96 | 163 | 6.0 | 12.0 | 0.00 | 0.00 | 0.00 | 57 | 1013.4 |
| 20260902201511 | 96 | 200 | 4.0 | 7.0 | 0.00 | 0.00 | 0.00 | 57 | 1013.6 |
| 20260902201008 | 96 | 185 | 1.0 | 4.0 | 0.00 | 0.00 | 0.00 | 56 | 1013.7 |
| 20260902200507 | 96 | 223 | 1.0 | 4.0 | 0.00 | 0.00 | 0.00 | 59 | 1013.8 |
| 20260902200009 | 96 | 185 | 1.0 | 3.0 | 0.00 | 0.00 | 0.00 | 58 | 1014.0 |
| 20260902195504 | 95 | 247 | 1.0 | 5.0 | 0.00 | 0.00 | 0.00 | 58 | 1014.1 |
| 20260902195003 | 95 | 202 | 1.0 | 5.0 | 0.00 | 0.00 | 0.00 | 59 | 1014.4 |
| 20260902194501 | 95 | 183 | 1.0 | 4.0 | 0.00 | 0.00 | 0.00 | 59 | 1014.3 |
| 20260902194003 | 94 | 198 | 2.0 | 4.0 | 0.00 | 0.00 | 0.00 | 59 | 1014.5 |
| 20260902193559 | 94 | 161 | 1.0 | 7.0 | 0.00 | 0.00 | 0.00 | 59 | 1014.5 |
| 20260902193059 | 94 | 221 | 2.0 | 7.0 | 0.00 | 0.00 | 0.00 | 60 | 1014.6 |
| 20260902192558 | 94 | 227 | 1.0 | 3.0 | 0.00 | 0.00 | 0.00 | 60 | 1014.6 |
| 20260902192057 | 94 | 236 | 1.0 | 5.0 | 0.00 | 0.00 | 0.00 | 60 | 1014.6 |
| 20260902191603 | 94 | 217 | 1.0 | 5.0 | 0.00 | 0.00 | 0.00 | 60 | 1014.7 |
| 20260902191055 | 93 | 236 | 1.0 | 3.0 | 0.00 | 0.00 | 0.00 | 61 | 1014.7 |
| 20260902190554 | 93 | 231 | 1.0 | 4.0 | 0.00 | 0.00 | 0.00 | 61 | 1014.6 |
| 20260902190054 | 93 | 213 | 1.0 | 6.0 | 0.00 | 0.00 | 0.00 | 61 | 1014.7 |
| 20260902185554 | 93 | 220 | 1.0 | 6.0 | 0.00 | 0.00 | 0.00 | 62 | 1014.7 |
| 20260902185053 | 93 | 231 | 2.0 | 10.0 | 0.00 | 0.00 | 0.00 | 61 | 1014.9 |
| 20260902184553 | 93 | 206 | 2.0 | 5.0 | 0.00 | 0.00 | 0.00 | 62 | 1015.0 |
| 20260902184051 | 93 | 170 | 1.0 | 11.0 | 0.00 | 0.00 | 0.00 | 62 | 1015.1 |
| 20260902183552 | 93 | 215 | 3.0 | 11.0 | 0.00 | 0.00 | 0.00 | 62 | 1015.1 |
| 20260902183051 | 93 | 223 | 3.0 | 11.0 | 0.00 | 0.00 | 0.00 | 62 | 1015.2 |
| 20260902182549 | 93 | 273 | 1.0 | 10.0 | 0.00 | 0.00 | 0.00 | 64 | 1015.4 |
| 20260902182050 | 92 | 182 | 5.0 | 10.0 | 0.00 | 0.00 | 0.00 | 63 | 1015.6 |
| 20260902181555 | 92 | 246 | 1.0 | 7.0 | 0.00 | 0.00 | 0.00 | 65 | 1015.5 |
| 20260902181046 | 92 | 178 | 1.0 | 7.0 | 0.00 | 0.00 | 0.00 | 66 | 1015.7 |
| 20260902180544 | 91 | 227 | 1.0 | 4.0 | 0.00 | 0.00 | 0.00 | 67 | 1015.7 |
| 20260902180105 | 91 | 233 | 1.0 | 4.0 | 0.00 | 0.00 | 0.00 | 68 | 1016.0 |
| 20260902175542 | 91 | 250 | 1.0 | 6.0 | 0.00 | 0.00 | 0.00 | 69 | 1016.0 |
| 20260902175040 | 91 | 272 | 1.0 | 3.0 | 0.00 | 0.00 | 0.00 | 69 | 1016.1 |
| 20260902174538 | 91 | 190 | 1.0 | 5.0 | 0.00 | 0.00 | 0.00 | 70 | 1016.1 |
| 20260902174038 | 90 | 186 | 2.0 | 5.0 | 0.00 | 0.00 | 0.00 | 69 | 1016.2 |
| 20260902173537 | 90 | 153 | 1.0 | 4.0 | 0.00 | 0.00 | 0.00 | 70 | 1016.2 |
| 20260902173035 | 90 | 238 | 1.0 | 5.0 | 0.00 | 0.00 | 0.00 | 71 | 1016.3 |
| 20260902172535 | 90 | 219 | 2.0 | 5.0 | 0.00 | 0.00 | 0.00 | 70 | 1016.3 |
| 20260902172036 | 89 | 209 | 1.0 | 5.0 | 0.00 | 0.00 | 0.00 | 71 | 1016.5 |
| 20260902171534 | 90 | 223 | 2.0 | 7.0 | 0.00 | 0.00 | 0.00 | 71 | 1016.5 |
| 20260902171034 | 89 | 239 | 2.0 | 7.0 | 0.00 | 0.00 | 0.00 | 72 | 1016.7 |
| 20260902170532 | 89 | 229 | 1.0 | 4.0 | 0.00 | 0.00 | 0.00 | 73 | 1016.7 |
| 20260902170033 | 89 | 269 | 2.0 | 4.0 | 0.00 | 0.00 | 0.00 | 74 | 1016.8 |
| 20260902165530 | 89 | 263 | 2.0 | 4.0 | 0.00 | 0.00 | 0.00 | 74 | 1016.9 |
| 20260902165030 | 88 | 273 | 1.0 | 5.0 | 0.00 | 0.00 | 0.00 | 76 | 1016.9 |
| 20260902164530 | 88 | 245 | 1.0 | 5.0 | 0.00 | 0.00 | 0.00 | 77 | 1016.9 |
| 20260902164028 | 88 | 214 | 2.0 | 6.0 | 0.00 | 0.00 | 0.00 | 77 | 1017.1 |
| 20260902163528 | 87 | 235 | 1.0 | 9.0 | 0.00 | 0.00 | 0.00 | 77 | 1017.0 |
| 20260902163028 | 87 | 217 | 3.0 | 9.0 | 0.00 | 0.00 | 0.00 | 77 | 1017.1 |
| 20260902162526 | 87 | 258 | 2.0 | 6.0 | 0.00 | 0.00 | 0.00 | 78 | 1017.1 |
| 20260902162028 | 87 | 233 | 2.0 | 6.0 | 0.00 | 0.00 | 0.00 | 79 | 1017.1 |
| 20260902161524 | 86 | 275 | 1.0 | 4.0 | 0.00 | 0.00 | 0.00 | 82 | 1017.1 |
| 20260902161023 | 86 | 272 | 1.0 | 4.0 | 0.00 | 0.00 | 0.00 | 82 | 1017.1 |
| 20260902160521 | 85 | 228 | 1.0 | 4.0 | 0.00 | 0.00 | 0.00 | 83 | 1017.2 |
| 20260902160020 | 85 | 266 | 1.0 | 5.0 | 0.00 | 0.00 | 0.00 | 84 | 1017.2 |
| 20260902155519 | 84 | 219 | 2.0 | 5.0 | 0.00 | 0.00 | 0.00 | 84 | 1017.1 |
| 20260902155020 | 84 | 210 | 2.0 | 6.0 | 0.00 | 0.00 | 0.00 | 84 | 1017.1 |
| 20260902154521 | 84 | 260 | 0.0 | 7.0 | 0.00 | 0.00 | 0.00 | 84 | 1017.0 |
| 20260902154016 | 84 | 272 | 0.0 | 4.0 | 0.00 | 0.00 | 0.00 | 85 | 1016.9 |
| 20260902153516 | 84 | 217 | 0.0 | 3.0 | 0.00 | 0.00 | 0.00 | 84 | 1017.0 |
| 20260902153017 | 84 | 259 | 0.0 | 5.0 | 0.00 | 0.00 | 0.00 | 85 | 1016.9 |
| 20260902152512 | 84 | 234 | 0.0 | 5.0 | 0.00 | 0.00 | 0.00 | 86 | 1017.0 |
| 20260902152013 | 83 | 265 | 0.0 | 6.0 | 0.00 | 0.00 | 0.00 | 86 | 1017.0 |
| 20260902151517 | 83 | 239 | 0.0 | 6.0 | 0.00 | 0.00 | 0.00 | 86 | 1017.1 |
| 20260902151011 | 83 | 227 | 0.0 | 4.0 | 0.00 | 0.00 | 0.00 | 87 | 1017.1 |
| 20260902150509 | 83 | 200 | 1.0 | 4.0 | 0.00 | 0.00 | 0.00 | 87 | 1017.1 |
| 20260902150011 | 83 | 200 | 0.0 | 3.0 | 0.00 | 0.00 | 0.00 | 88 | 1017.1 |
| 20260902145507 | 83 | 223 | 1.0 | 3.0 | 0.00 | 0.00 | 0.00 | 88 | 1017.1 |
| 20260902145011 | 82 | 268 | 0.0 | 3.0 | 0.00 | 0.00 | 0.00 | 88 | 1017.2 |
| 20260902144517 | 82 | 293 | 0.0 | 2.0 | 0.00 | 0.00 | 0.00 | 89 | 1017.1 |
| 20260902144005 | 82 | 221 | 0.0 | 3.0 | 0.00 | 0.00 | 0.00 | 89 | 1017.0 |
| 20260902143505 | 82 | 221 | 1.0 | 3.0 | 0.00 | 0.00 | 0.00 | 89 | 1017.1 |
| 20260902143004 | 82 | 224 | 0.0 | 3.0 | 0.00 | 0.00 | 0.00 | 89 | 1017.1 |
| 20260902142504 | 82 | 168 | 0.0 | 2.0 | 0.00 | 0.00 | 0.00 | 90 | 1017.1 |
| 20260902142003 | 82 | 168 | 0.0 | 3.0 | 0.00 | 0.00 | 0.00 | 89 | 1017.0 |